• In Deutschland
  • Länderverzeichnis
  • Für 7 Tage
  • Wassertemperatur
  • Satellitenkarten
  • Wetterkarte
  • Widgets
  • user-avatar
    Anmelden

    Stündliche Wetter Sölden

    Heute, 27 Juni, Dienstag

    Zeit Temperatur Niederschläge Wind Luftdruck Luftfeuchtigkeit
    00:00 +8°C° 0,4 mm 1 m/S 583 mmHg 96%
    01:00 +8°C° 0 mm 1 m/S 583 mmHg 96%
    02:00 +8°C° 0,4 mm 1 m/S 582 mmHg 96%
    03:00 +8°C° 0,4 mm 1 m/S 582 mmHg 95%
    04:00 +7°C° 0,4 mm 1 m/S 582 mmHg 95%
    05:00 +8°C° 0,4 mm 1 m/S 583 mmHg 92%
    06:00 +9°C° 0,4 mm 1 m/S 583 mmHg 90%
    07:00 +10°C° 0,4 mm 1 m/S 583 mmHg 87%
    08:00 +12°C° 0,3 mm 1 m/S 584 mmHg 79%
    09:00 +13°C° 0,3 mm 1 m/S 584 mmHg 71%
    10:00 +15°C° 0,3 mm 1 m/S 585 mmHg 63%
    11:00 +15°C° 0,6 mm 2 m/S 585 mmHg 64%
    12:00 +15°C° 0,6 mm 2 m/S 585 mmHg 65%
    13:00 +15°C° 0,6 mm 2 m/S 584 mmHg 65%
    14:00 +15°C° 0,5 mm 2 m/S 584 mmHg 67%
    15:00 +15°C° 0,5 mm 2 m/S 584 mmHg 68%
    16:00 +15°C° 0,5 mm 2 m/S 584 mmHg 70%
    17:00 +14°C° 0,3 mm 2 m/S 583 mmHg 75%
    18:00 +13°C° 0,3 mm 2 m/S 583 mmHg 81%
    19:00 +12°C° 0,3 mm 1 m/S 582 mmHg 86%
    20:00 +11°C° 0,1 mm 1 m/S 581 mmHg 90%
    21:00 +9°C° 0,1 mm 1 m/S 580 mmHg 93%
    22:00 +7°C° 0,1 mm 1 m/S 580 mmHg 96%
    23:00 +8°C° 0 mm 1 m/S 580 mmHg 96%

    Morgen, 28 Juni, Mittwoch

    Zeit Temperatur Niederschläge Wind Luftdruck Luftfeuchtigkeit
    00:00 +8°C° 0 mm 1 m/S 579 mmHg 96%
    01:00 +8°C° 0 mm 1 m/S 579 mmHg 96%
    02:00 +8°C° 0,2 mm 1 m/S 579 mmHg 96%
    03:00 +8°C° 0,2 mm 1 m/S 579 mmHg 96%
    04:00 +8°C° 0,2 mm 1 m/S 579 mmHg 96%
    05:00 +9°C° 0,2 mm 1 m/S 579 mmHg 94%
    06:00 +10°C° 0,2 mm 1 m/S 579 mmHg 91%
    07:00 +9°C° 0,2 mm 2 m/S 579 mmHg 89%
    08:00 +10°C° 0,4 mm 2 m/S 579 mmHg 84%
    09:00 +12°C° 0,4 mm 2 m/S 580 mmHg 79%
    10:00 +12°C° 0,4 mm 3 m/S 580 mmHg 74%
    11:00 +13°C° 0,4 mm 3 m/S 580 mmHg 69%
    12:00 +14°C° 0,4 mm 3 m/S 580 mmHg 65%
    13:00 +14°C° 0,4 mm 3 m/S 580 mmHg 60%
    14:00 +15°C° 1,1 mm 2 m/S 579 mmHg 66%
    15:00 +14°C° 1,1 mm 2 m/S 579 mmHg 71%
    16:00 +13°C° 1,1 mm 2 m/S 578 mmHg 76%
    17:00 +12°C° 2,5 mm 1 m/S 577 mmHg 83%
    18:00 +10°C° 2,5 mm 1 m/S 576 mmHg 89%
    19:00 +9°C° 2,5 mm 1 m/S 575 mmHg 96%
    20:00 +8°C° 0,9 mm 1 m/S 574 mmHg 96%
    21:00 +7°C° 0,9 mm 1 m/S 574 mmHg 96%
    22:00 +6°C° 0,9 mm 1 m/S 573 mmHg 96%
    23:00 +6°C° 0,1 mm 1 m/S 573 mmHg 96%

    übermorgen, 29 Juni, Donnerstag

    Zeit Temperatur Niederschläge Wind Luftdruck Luftfeuchtigkeit
    00:00 +5°C° 0,1 mm 1 m/S 572 mmHg 96%
    01:00 +5°C° 0,1 mm 1 m/S 572 mmHg 97%
    02:00 +5°C° 0,1 mm 1 m/S 572 mmHg 97%
    03:00 +4°C° 0,1 mm 1 m/S 572 mmHg 97%
    04:00 +4°C° 0,1 mm 1 m/S 572 mmHg 97%
    05:00 +5°C° 0,5 mm 1 m/S 572 mmHg 95%
    06:00 +5°C° 0,5 mm 0 m/S 573 mmHg 94%
    07:00 +6°C° 0,5 mm 0 m/S 574 mmHg 92%
    08:00 +7°C° 1,1 mm 0 m/S 574 mmHg 89%
    09:00 +8°C° 1,1 mm 1 m/S 575 mmHg 86%
    10:00 +9°C° 1,1 mm 1 m/S 575 mmHg 84%
    11:00 +9°C° 1,1 mm 1 m/S 576 mmHg 83%
    12:00 +9°C° 1,1 mm 2 m/S 576 mmHg 82%
    13:00 +9°C° 1,1 mm 2 m/S 576 mmHg 81%
    14:00 +9°C° 0,9 mm 2 m/S 577 mmHg 79%
    15:00 +9°C° 0,9 mm 2 m/S 577 mmHg 76%
    16:00 +9°C° 0,9 mm 2 m/S 577 mmHg 73%
    17:00 +8°C° 0,5 mm 2 m/S 577 mmHg 77%
    18:00 +7°C° 0,5 mm 2 m/S 577 mmHg 82%
    19:00 +7°C° 0,5 mm 2 m/S 577 mmHg 86%
    20:00 +6°C° 0,7 mm 1 m/S 576 mmHg 89%
    21:00 +5°C° 0,7 mm 1 m/S 576 mmHg 93%
    22:00 +3°C° 0,7 mm 1 m/S 576 mmHg 96%
    23:00 +3°C° 0,7 mm 1 m/S 576 mmHg 96%

    30 Juni, Freitag

    Zeit Temperatur Niederschläge Wind Luftdruck Luftfeuchtigkeit
    00:00 +3°C° 0,7 mm 1 m/S 576 mmHg 96%
    01:00 +3°C° 0,7 mm 1 m/S 576 mmHg 96%
    02:00 +2°C° 0,3 mm 1 m/S 576 mmHg 96%
    03:00 +2°C° 0,3 mm 1 m/S 576 mmHg 95%
    04:00 +1°C° 0,3 mm 1 m/S 576 mmHg 95%
    05:00 +3°C° 0,1 mm 1 m/S 577 mmHg 93%
    06:00 +4°C° 0,1 mm 1 m/S 578 mmHg 90%
    07:00 +6°C° 0,1 mm 1 m/S 579 mmHg 87%
    08:00 +7°C° 0,2 mm 1 m/S 579 mmHg 80%
    09:00 +7°C° 0,2 mm 2 m/S 580 mmHg 74%
    10:00 +9°C° 0,2 mm 2 m/S 581 mmHg 67%
    11:00 +9°C° 0,3 mm 3 m/S 581 mmHg 64%
    12:00 +9°C° 0,3 mm 3 m/S 581 mmHg 61%
    13:00 +10°C° 0,3 mm 3 m/S 582 mmHg 58%
    14:00 +10°C° 0,2 mm 3 m/S 582 mmHg 58%
    15:00 +10°C° 0,2 mm 3 m/S 582 mmHg 57%
    16:00 +9°C° 0,2 mm 3 m/S 581 mmHg 56%
    17:00 +8°C° 0,1 mm 2 m/S 581 mmHg 63%
    18:00 +7°C° 0,1 mm 2 m/S 581 mmHg 70%
    19:00 +7°C° 0,1 mm 1 m/S 581 mmHg 77%
    20:00 +5°C° 0,1 mm 1 m/S 580 mmHg 82%
    21:00 +4°C° 0,1 mm 1 m/S 579 mmHg 87%
    22:00 +2°C° 0,1 mm 1 m/S 579 mmHg 92%
    23:00 +2°C° 0,1 mm 1 m/S 579 mmHg 92%

    1 Juli, Samstag

    Zeit Temperatur Niederschläge Wind Luftdruck Luftfeuchtigkeit
    00:00 +1°C° 0,1 mm 1 m/S 578 mmHg 92%
    01:00 +1°C° 0,1 mm 1 m/S 578 mmHg 92%
    02:00 +1°C° 0,1 mm 1 m/S 578 mmHg 92%
    03:00 +1°C° 0,1 mm 1 m/S 578 mmHg 91%
    04:00 0°C° 0,1 mm 1 m/S 578 mmHg 91%
    05:00 +2°C° 0 mm 1 m/S 579 mmHg 84%
    06:00 +4°C° 0 mm 1 m/S 580 mmHg 76%
    07:00 +5°C° 0 mm 0 m/S 581 mmHg 69%
    08:00 +7°C° 0 mm 0 m/S 582 mmHg 61%
    09:00 +10°C° 0 mm 1 m/S 583 mmHg 54%
    10:00 +12°C° 0 mm 1 m/S 584 mmHg 46%
    11:00 +12°C° 0,2 mm 1 m/S 584 mmHg 48%
    12:00 +12°C° 0,2 mm 1 m/S 584 mmHg 50%
    13:00 +12°C° 0,2 mm 1 m/S 584 mmHg 52%
    14:00 +12°C° 0,6 mm 1 m/S 584 mmHg 56%
    15:00 +12°C° 0,6 mm 2 m/S 584 mmHg 60%
    16:00 +10°C° 0,6 mm 2 m/S 584 mmHg 64%
    17:00 +10°C° 0,4 mm 1 m/S 583 mmHg 71%
    18:00 +9°C° 0,4 mm 1 m/S 583 mmHg 78%
    19:00 +8°C° 0,4 mm 1 m/S 583 mmHg 85%
    20:00 +7°C° 0,2 mm 1 m/S 582 mmHg 87%
    21:00 +5°C° 0,2 mm 1 m/S 582 mmHg 90%
    22:00 +3°C° 0,2 mm 1 m/S 582 mmHg 93%
    23:00 +3°C° 0 mm 1 m/S 582 mmHg 92%

    2 Juli, Sonntag

    Zeit Temperatur Niederschläge Wind Luftdruck Luftfeuchtigkeit
    00:00 +3°C° 0 mm 1 m/S 582 mmHg 92%
    01:00 +3°C° 0 mm 1 m/S 582 mmHg 91%
    02:00 +2°C° 0 mm 2 m/S 582 mmHg 92%
    03:00 +2°C° 0 mm 2 m/S 582 mmHg 92%
    04:00 +2°C° 0 mm 2 m/S 582 mmHg 92%
    05:00 +3°C° 0,1 mm 2 m/S 582 mmHg 89%
    06:00 +4°C° 0,1 mm 2 m/S 583 mmHg 86%
    07:00 +5°C° 0,1 mm 2 m/S 584 mmHg 83%
    08:00 +8°C° 0,1 mm 1 m/S 585 mmHg 76%
    09:00 +9°C° 0,1 mm 1 m/S 586 mmHg 69%
    10:00 +11°C° 0,1 mm 1 m/S 587 mmHg 62%
    11:00 +12°C° 0,1 mm 1 m/S 587 mmHg 60%
    12:00 +13°C° 0,1 mm 1 m/S 587 mmHg 58%
    13:00 +13°C° 0,1 mm 1 m/S 587 mmHg 56%
    14:00 +13°C° 0,1 mm 1 m/S 587 mmHg 57%
    15:00 +14°C° 0,1 mm 1 m/S 587 mmHg 57%
    16:00 +14°C° 0,1 mm 2 m/S 587 mmHg 58%
    17:00 +12°C° 0 mm 1 m/S 587 mmHg 65%
    18:00 +11°C° 0 mm 1 m/S 586 mmHg 73%
    19:00 +10°C° 0 mm 1 m/S 586 mmHg 80%
    20:00 +9°C° 0 mm 1 m/S 585 mmHg 84%
    21:00 +7°C° 0 mm 1 m/S 585 mmHg 88%
    22:00 +5°C° 0 mm 1 m/S 584 mmHg 92%
    23:00 +5°C° 0 mm 1 m/S 584 mmHg 92%
    Mehr zeigen